Location: Newark
(45.9456°N, 15.4064°E)
Time: 04:41:27
(UTC+00:00)

N. Korean satellite - Visible Passes

Search period start: 14 December 2019 00:00
Search period end: 24 December 2019 00:00
Orbit: 455 x 507 km, 97.2° (Epoch: 13 December)

Date Brightness Start Highest point End Pass type
(mag) Time Alt. Az. Time Alt. Az. Time Alt. Az.
14 Dec 6.5 04:53:25 10° NNE 04:56:57 81° ESE 05:00:24 10° S visible
14 Dec 9.9 17:05:48 10° SW 17:07:56 15° W 17:10:04 10° NW visible
15 Dec 8.1 04:28:10 10° NNE 04:31:27 37° E 04:34:40 10° SSE visible
15 Dec 8.9 16:39:07 10° SSW 16:42:19 28° W 16:45:31 10° NW visible
16 Dec 9.4 04:03:20 10° NE 04:05:51 18° E 04:08:20 10° SE visible
16 Dec 7.3 05:36:15 10° N 05:39:18 29° WNW 05:42:19 10° SW visible
16 Dec 7.4 16:13:10 10° S 16:16:48 56° W 16:20:25 10° NNW visible
17 Dec 6.4 05:10:30 10° N 05:13:58 59° WNW 05:17:21 10° SSW visible
17 Dec 6.6 15:47:42 10° SSE 15:51:22 69° ENE 15:55:00 10° N visible
18 Dec 6.9 04:45:04 10° NNE 04:48:32 62° E 04:51:55 10° S visible
18 Dec 9.7 16:56:56 10° SW 16:59:29 18° W 17:02:02 10° NW visible
19 Dec 8.5 04:19:55 10° NE 04:23:00 29° E 04:26:01 10° SSE visible
19 Dec 7.9 05:53:43 10° NNW 05:56:12 19° WNW 05:58:40 10° WSW visible
19 Dec 8.5 16:30:33 10° SSW 16:33:54 34° W 16:37:15 10° NNW visible
20 Dec 9.7 03:55:19 10° NE 03:57:22 15° E 03:59:23 10° SE visible
20 Dec 7.0 05:27:43 10° N 05:30:55 35° WNW 05:34:05 10° SW visible
20 Dec 6.9 16:04:45 10° S 16:08:24 72° WSW 16:12:01 10° NNW visible
21 Dec 6.3 05:02:05 10° N 05:05:32 77° WNW 05:08:57 10° SSW visible
21 Dec 10.1 17:15:29 10° WSW 17:16:41 11° W 17:17:53 10° WNW visible
22 Dec 7.4 04:36:42 10° NNE 04:40:04 48° E 04:43:23 10° S visible
22 Dec 9.4 16:48:10 10° SW 16:51:02 22° W 16:53:53 10° NW visible
23 Dec 8.9 04:11:41 10° NE 04:14:30 23° E 04:17:18 10° SSE visible
23 Dec 7.6 05:45:04 10° NNW 05:47:50 22° WNW 05:50:34 10° WSW visible
23 Dec 8.0 16:22:00 10° S 16:25:28 42° W 16:28:55 10° NNW visible
